#timestamp,LO_Frequency,Hit,StdDev 
1679310015.0,286047002.6,N
1679310015.9,286047002.6,N
1679310035.8,286047004.0,N
1679310055.6,286047001.0,N
1679310075.4,286047002.8,N
1679310095.3,286047002.7,N
1679310115.1,286046999.9,N
1679310135.8,286046999.3,N
1679310155.7,286046998.7,N
1679310175.5,286046998.8,N
1679310195.4,286046999.4,N
1679310215.2,286046996.6,N
1679310235.0,286046997.5,N
1679310235.9,286046997.5,N
1679310255.8,286046995.4,N
1679310275.6,286046994.9,N
1679310295.5,286046997.5,N
1679310315.3,286046997.9,N
1679310335.1,286046995.2,N
1679310355.9,286046993.8,N
1679310375.7,286046996.4,N
1679310395.5,286046995.0,N
1679310415.4,286046997.1,N
1679310435.2,286046997.0,N
1679310455.1,286046995.5,N
1679310456.0,286046995.5,N
1679310475.8,286046996.3,N
1679310525.7,286046998.0,E
1679310535.6,286046997.5,N
1679310555.4,286046999.3,P
1679310575.3,286047000.3,N
1679310595.1,286047001.0,N
1679310615.8,286047000.8,N
1679310635.7,286047001.2,N
1679310655.5,286047001.2,N
1679310675.4,286047001.0,N
1679310695.2,286046998.2,N
1679310715.0,286047000.4,N
1679310715.9,286047000.4,N
1679310735.8,286047000.4,N
1679310755.6,286047000.5,N
1679310775.5,286047002.1,N
1679310795.3,286047002.7,N
1679310815.1,286047001.0,N
1679310835.9,286047000.8,N
1679310855.7,286047001.0,N
1679310875.5,286047000.3,N
1679310895.4,286047000.9,N
1679310915.2,286047000.9,N
1679310935.1,286047000.9,N
1679310936.0,286047000.9,N
1679310955.8,286047000.8,N
1679310975.6,286047000.7,N
1679310995.5,286047000.6,N
1679311015.3,286047004.0,Y
1679311035.2,286047002.3,P
1679311055.9,286047002.5,N
1679311075.7,286047000.9,N
1679311095.6,286046999.8,N
1679311115.4,286046999.9,N
1679311135.2,286047000.2,N
1679311155.1,286047000.6,N
1679311156.0,286047000.6,N
1679311175.8,286047000.8,N
1679311195.7,286047000.9,N
1679311215.5,286047001.2,N
1679311235.3,286046998.3,N
1679311255.2,286047000.6,N
1679311275.0,286046998.8,N
1679311275.9,286046998.8,N
1679311295.8,286046999.0,N
1679311315.6,286046996.9,N
1679311335.4,286046996.5,N
1679311355.3,286046999.6,N
1679311375.1,286046999.2,N
1679311395.9,286046997.8,N
1679311415.7,286046997.0,N
1679311435.5,286046996.9,N
1679311455.4,286046997.2,N
1679311475.2,286046996.8,N
1679311495.0,286046997.0,N
1679311496.0,286046997.0,N
1679311515.8,286046997.0,N
1679311535.6,286046997.7,N
1679311555.5,286046996.7,N
1679311575.3,286046999.2,N
1679311595.1,286046996.6,N
1679311615.9,286046998.0,N
1679311635.7,286046997.4,N
1679311655.6,286046999.5,N
1679311675.4,286046999.6,N
1679311695.2,286046997.8,N
1679311715.1,286046994.9,Y
1679311716.0,286046994.9,P
1679311735.8,286046999.3,N
1679311755.7,286046996.6,N
1679311775.5,286046997.1,N
1679311795.3,286046999.0,N
1679311815.2,286046997.0,N
1679311835.0,286046999.4,N
1679311835.9,286046999.4,N
1679311855.8,286046998.9,N
1679311875.6,286047000.7,N
1679311895.4,286047000.9,N
1679311915.3,286046999.0,N
1679311935.1,286046999.4,N
1679311955.8,286046998.9,N
1679311975.7,286046999.4,N
1679311995.5,286046998.7,N
1679312015.4,286046999.0,N
1679312035.2,286046998.4,N
1679312055.0,286046999.5,N
1679312055.9,286046999.5,N
1679312075.8,286046998.8,N
1679312095.6,286046998.2,N
1679312115.5,286047001.2,N
1679312135.3,286046998.4,N
1679312155.1,286046999.4,N
1679312175.9,286046996.6,N
1679312195.7,286046998.8,N
1679312215.6,286046999.4,N
1679312235.4,286046996.9,N
1679312255.2,286046996.6,N
1679312275.1,286047000.5,N
1679312276.0,286047000.5,N
1679312295.8,286047000.2,N
1679312315.6,286047000.3,N
1679312335.5,286047001.0,N
1679312355.3,286046999.9,N
1679312375.2,286047000.0,N
1679312395.9,286047000.9,N
1679312415.7,286047000.7,N
1679312435.6,286047000.9,N
1679312455.4,286046998.1,N
1679312475.2,286047000.7,N
1679312495.1,286047001.6,N
1679312496.0,286047001.6,N
1679312515.8,286047002.3,N
1679312535.7,286047002.7,N
1679312555.5,286047000.0,N
1679312575.3,286047002.7,N
1679312595.2,286047002.2,N
1679312615.0,286047002.5,N
1679312615.9,286047002.5,N
1679312635.8,286047000.4,N
1679312655.6,286047001.1,N
1679312675.4,286046998.8,N
1679312695.3,286046996.7,N
1679312715.1,286046999.1,N
1679312735.9,286046999.2,N
1679312755.7,286046996.5,N
1679312775.5,286047001.2,N
1679312795.4,286047000.9,N
1679312815.2,286047001.2,N
1679312835.0,286046998.7,N
1679312835.9,286046998.7,N
1679312855.8,286047000.6,N
1679312875.6,286047001.1,N
1679312895.5,286047001.1,N
1679312915.3,286046998.9,N
1679312935.1,286046998.3,N
1679312955.9,286046999.2,N
1679312975.7,286046998.1,N
1679312995.5,286047001.2,N
1679313015.4,286047001.2,N
1679313035.2,286046999.3,N
1679313055.1,286046999.6,N
1679313056.0,286046999.6,N
1679313075.8,286046999.2,N
1679313095.6,286046999.3,N
1679313115.5,286046997.8,N
1679313135.3,286046997.2,N
1679313155.1,286046997.2,N
1679313175.9,286046998.0,N
1679313195.7,286046997.4,N
1679313215.6,286046999.1,N
1679313235.4,286046999.4,N
1679313255.2,286046999.3,N
1679313275.1,286046998.8,N
1679313276.0,286046998.8,N
1679313295.8,286047000.5,N
1679313315.6,286047002.4,N
1679313335.5,286046999.8,N
1679313355.3,286046998.9,N
1679313375.2,286046996.6,N
1679313395.9,286046997.3,N
1679313415.7,286046994.9,Y
1679313435.6,286046997.2,P
1679313455.4,286046999.1,N
1679313475.2,286046998.6,N
1679313495.1,286046999.0,N
1679313496.0,286046999.0,N
1679313515.8,286046999.1,N
1679313535.7,286046998.7,N
1679313555.5,286046998.9,N
1679313575.3,286046998.5,N
1679313595.2,286047001.1,N
